Location: Lancaster
(54.0470°N, 2.8020°W)
Time: 15:52:51
(UTC+01:00)

COSMOS 2428 - Visible Passes

Search period start: 20 April 2018 00:00
Search period end: 30 April 2018 00:00
Orbit: 844 x 858 km, 71.0° (Epoch: 20 April)

Date Brightness Start Highest point End Pass type
(mag) Time Alt. Az. Time Alt. Az. Time Alt. Az.
20 Apr 5.7 01:36:29 10° NW 01:39:36 15° N 01:42:42 10° NNE visible
20 Apr 5.5 03:22:05 10° NNW 03:26:12 20° NNE 03:30:19 10° ENE visible
20 Apr 3.8 05:06:15 10° NNW 05:11:51 51° NE 05:17:22 10° SE visible
20 Apr 3.1 21:49:48 10° SW 21:55:32 70° NW 22:01:17 10° NNE visible
20 Apr 5.1 23:36:15 10° W 23:40:49 24° NNW 23:45:23 10° NNE visible
21 Apr 5.8 01:24:09 10° NW 01:27:17 15° N 01:30:23 10° NNE visible
21 Apr 5.5 03:09:46 10° NNW 03:13:53 20° NNE 03:17:59 10° ENE visible
21 Apr 3.8 04:53:56 10° NNW 04:59:31 51° NE 05:05:03 10° SE visible
21 Apr 3.1 21:37:29 10° SW 21:43:12 70° NW 21:48:57 10° NNE visible
21 Apr 5.1 23:23:56 10° W 23:28:30 24° NNW 23:33:04 10° NNE visible
22 Apr 5.8 01:11:50 10° NW 01:14:57 15° N 01:18:03 10° NNE visible
22 Apr 5.5 02:57:26 10° NNW 03:01:34 20° NNE 03:05:40 10° ENE visible
22 Apr 3.8 04:41:36 10° NNW 04:47:12 51° NE 04:52:44 10° SE visible
22 Apr 3.1 21:25:10 10° SW 21:30:53 71° NW 21:36:38 10° NNE visible
22 Apr 5.2 23:11:36 10° W 23:16:10 24° NNW 23:20:45 10° NNE visible
23 Apr 5.8 00:59:31 10° NW 01:02:38 15° N 01:05:44 10° NNE visible
23 Apr 5.5 02:45:08 10° NNW 02:49:14 20° NNE 02:53:20 10° ENE visible
23 Apr 3.8 04:29:17 10° NNW 04:34:52 51° NE 04:40:24 10° SE visible
23 Apr 3.1 21:12:50 10° SW 21:18:34 71° NW 21:24:18 10° NNE visible
23 Apr 5.2 22:59:17 10° W 23:03:51 24° NNW 23:08:25 10° NNE visible
24 Apr 5.8 00:47:12 10° NW 00:50:18 15° N 00:53:24 10° NNE visible
24 Apr 5.5 02:32:49 10° NNW 02:36:55 20° NNE 02:41:00 10° ENE visible
24 Apr 3.7 04:16:57 10° NNW 04:22:33 51° NE 04:28:05 10° SE visible
24 Apr 3.2 21:00:31 10° SW 21:06:14 71° NW 21:11:59 10° NNE visible
24 Apr 5.2 22:46:57 10° W 22:51:31 24° NNW 22:56:06 10° NNE visible
25 Apr 5.8 00:34:52 10° NW 00:37:58 15° N 00:41:05 10° NNE visible
25 Apr 5.4 02:20:29 10° NNW 02:24:35 20° NNE 02:28:41 10° ENE visible
25 Apr 3.7 04:04:38 10° NNW 04:10:13 51° NE 04:15:45 10° SE visible
25 Apr 5.3 22:34:38 10° W 22:39:12 24° NNW 22:43:46 10° NNE visible
26 Apr 5.8 00:22:32 10° NW 00:25:39 15° N 00:28:45 10° NNE visible
26 Apr 5.4 02:08:09 10° NNW 02:12:16 20° NNE 02:16:21 10° ENE visible
26 Apr 3.7 03:52:19 10° NNW 03:57:54 51° NE 04:03:25 10° SE visible
26 Apr 5.3 22:22:18 10° W 22:26:52 24° NNW 22:31:27 10° NNE visible
27 Apr 5.8 00:10:13 10° NW 00:13:19 15° N 00:16:25 10° NNE visible
27 Apr 5.4 01:55:50 10° NNW 01:59:56 20° NNE 02:04:01 10° ENE visible
27 Apr 3.7 03:40:00 10° NNW 03:45:35 51° NE 03:51:06 10° SE visible
27 Apr 5.3 22:09:58 10° W 22:14:33 24° NNW 22:19:07 10° NNE visible
27 Apr 5.7 23:57:53 10° NW 00:01:00 15° N 00:04:06 10° NNE visible
28 Apr 5.4 01:43:31 10° NNW 01:47:36 20° NNE 01:51:41 10° ENE visible
28 Apr 3.7 03:27:40 10° NNW 03:33:15 51° NE 03:38:46 10° SE visible
28 Apr 5.3 21:57:39 10° W 22:02:13 24° NNW 22:06:48 10° NNE visible
28 Apr 5.7 23:45:34 10° NW 23:48:40 15° N 23:51:45 10° NNE visible
29 Apr 5.4 01:31:11 10° NNW 01:35:17 20° NNE 01:39:21 10° ENE visible
29 Apr 3.7 03:15:21 10° NNW 03:20:55 50° NE 03:26:26 10° SE visible
29 Apr 5.3 21:45:19 10° W 21:49:54 24° NNW 21:54:28 10° NNE visible
29 Apr 5.6 23:33:14 10° NW 23:36:20 15° N 23:39:26 10° NNE visible
